Location: El Bakhil
(32.7726°N, 5.5387°W)
Time: 17:27:04
(UTC+00:00)

DIWATA 2B (PO-101) - Pass Details

Date: 29 July 2021
Orbit: 584 x 600 km, 97.9° (Epoch: 19 September)

Event Time Altitude Azimuth Distance (km) Brightness Sun altitude
Exits shadow 01:11:37 13° 24° (NNE) 1,740 ? -37.5°
Drops below altitude 10° 01:12:16 10° 18° (NNE) 1,940 ? -37.5°
Sets 01:14:46 0° 4° (N) 2,848 ? -37.3°
